WMT2RY LROP-LIRP

Flight info

Callsign WMT2RY
Flight time 1h 51m
Altitude 37000
Route POLUN Y88 ANASA/N0377F200 Y88 VAL Z924 VEBAR Y88 KENEM/N0443F340 DCT TORPO/N0365F190 M730 ANC M986 GAVRA Y664 IBRID
Aircraft A321/M-SDE1E2E3FGIJ1J4RWXY/LB1

Departure

Time 2026-04-26 09:48
Airport Bucharest Henri Coandă International Airport (LROP)

Arrival

Time 2026-04-26 11:39
Airport Pisa International Airport (LIRP)
Time Latitude Longitude Altitude Speed Heading
2026-04-26 09:08 44.57008 26.07963 321 ft 0 kts 354°
2026-04-26 09:33 44.57001 26.07965 319 ft 3 kts 354°
2026-04-26 09:34 44.56980 26.07968 317 ft 3 kts 354°
2026-04-26 09:34 44.56961 26.07971 318 ft 2 kts 354°
2026-04-26 09:34 44.56943 26.07976 318 ft 3 kts 323°
2026-04-26 09:34 44.56932 26.07994 320 ft 3 kts 281°
2026-04-26 09:35 44.56931 26.08016 320 ft 1 kts 264°
2026-04-26 09:35 44.56932 26.08036 320 ft 3 kts 264°
2026-04-26 09:35 44.56933 26.08048 319 ft 0 kts 264°
2026-04-26 09:39 44.56933 26.08045 320 ft 1 kts 264°
2026-04-26 09:39 44.56931 26.08027 319 ft 3 kts 263°
2026-04-26 09:39 44.56915 26.07991 320 ft 7 kts 219°
2026-04-26 09:40 44.56854 26.07986 320 ft 10 kts 175°
2026-04-26 09:40 44.56783 26.08014 320 ft 13 kts 133°
2026-04-26 09:40 44.56791 26.08151 320 ft 16 kts 65°
2026-04-26 09:40 44.56844 26.08295 320 ft 17 kts 62°
2026-04-26 09:41 44.56894 26.08448 320 ft 17 kts 78°
2026-04-26 09:41 44.56966 26.08543 320 ft 16 kts 353°
2026-04-26 09:41 44.57082 26.08525 320 ft 17 kts 354°
2026-04-26 09:41 44.57203 26.08507 320 ft 18 kts 354°
2026-04-26 09:42 44.57330 26.08489 321 ft 19 kts 354°
2026-04-26 09:42 44.57457 26.08476 321 ft 17 kts 13°
2026-04-26 09:42 44.57505 26.08607 321 ft 16 kts 84°
2026-04-26 09:42 44.57516 26.08766 321 ft 17 kts 84°
2026-04-26 09:43 44.57530 26.08940 320 ft 20 kts 84°
2026-04-26 09:43 44.57546 26.09160 320 ft 24 kts 84°
2026-04-26 09:43 44.57563 26.09400 320 ft 25 kts 84°
2026-04-26 09:43 44.57582 26.09643 321 ft 25 kts 84°
2026-04-26 09:44 44.57602 26.09892 321 ft 27 kts 84°
2026-04-26 09:44 44.57621 26.10152 321 ft 27 kts 84°
2026-04-26 09:44 44.57639 26.10412 321 ft 27 kts 84°
2026-04-26 09:44 44.57660 26.10679 321 ft 28 kts 84°
2026-04-26 09:45 44.57681 26.10950 320 ft 28 kts 84°
2026-04-26 09:45 44.57702 26.11225 320 ft 29 kts 84°
2026-04-26 09:45 44.57723 26.11503 321 ft 29 kts 84°
2026-04-26 09:45 44.57744 26.11781 321 ft 29 kts 84°
2026-04-26 09:46 44.57764 26.12040 321 ft 29 kts 84°
2026-04-26 09:46 44.57785 26.12324 321 ft 27 kts 84°
2026-04-26 09:46 44.57804 26.12578 321 ft 23 kts 84°
2026-04-26 09:46 44.57820 26.12791 321 ft 15 kts 84°
2026-04-26 09:47 44.57878 26.12860 320 ft 12 kts 355°
2026-04-26 09:47 44.57948 26.12792 319 ft 13 kts 324°
2026-04-26 09:47 44.57985 26.12682 320 ft 14 kts 265°
2026-04-26 09:47 44.57966 26.12422 321 ft 55 kts 264°
2026-04-26 09:48 44.57900 26.11565 321 ft 119 kts 264°
2026-04-26 09:48 44.57795 26.10172 352 ft 164 kts 263°
2026-04-26 09:48 44.57679 26.08595 972 ft 161 kts 264°
2026-04-26 09:48 44.57568 26.07064 1645 ft 161 kts 262°
2026-04-26 09:49 44.57440 26.05422 1917 ft 180 kts 263°
2026-04-26 09:49 44.57297 26.03571 2096 ft 202 kts 264°
2026-04-26 09:49 44.57144 26.01488 2295 ft 228 kts 264°
2026-04-26 09:49 44.57001 25.99196 2843 ft 241 kts 266°
2026-04-26 09:50 44.56862 25.96829 3663 ft 246 kts 267°
2026-04-26 09:50 44.56723 25.94414 4437 ft 251 kts 267°
2026-04-26 09:50 44.56581 25.91968 5226 ft 253 kts 268°
2026-04-26 09:50 44.56436 25.89516 5961 ft 257 kts 268°
2026-04-26 09:51 44.56284 25.87015 6740 ft 258 kts 268°
2026-04-26 09:51 44.56129 25.84493 7513 ft 260 kts 268°
2026-04-26 09:51 44.55974 25.81957 8284 ft 262 kts 268°
2026-04-26 09:51 44.55818 25.79406 9071 ft 264 kts 268°
2026-04-26 09:52 44.55659 25.76835 9856 ft 265 kts 268°
2026-04-26 09:52 44.55384 25.72353 10398 ft 296 kts 268°
2026-04-26 09:52 44.55203 25.69377 10607 ft 315 kts 267°
2026-04-26 09:53 44.55011 25.66287 11189 ft 321 kts 267°
2026-04-26 09:53 44.54747 25.62142 12124 ft 324 kts 267°
2026-04-26 09:53 44.54546 25.58986 12801 ft 327 kts 268°
2026-04-26 09:53 44.54344 25.55802 13487 ft 329 kts 268°
2026-04-26 09:54 44.54206 25.53632 13916 ft 331 kts 268°
2026-04-26 09:54 44.53998 25.50402 14512 ft 335 kts 268°
2026-04-26 09:54 44.53786 25.47135 15112 ft 338 kts 267°
2026-04-26 09:54 44.53574 25.43882 15694 ft 342 kts 267°
2026-04-26 09:55 44.53357 25.40549 16289 ft 345 kts 267°
2026-04-26 09:55 44.53140 25.37186 16886 ft 349 kts 267°
2026-04-26 09:55 44.52920 25.33782 17482 ft 352 kts 267°
2026-04-26 09:55 44.52698 25.30349 18081 ft 356 kts 267°
2026-04-26 09:56 44.52470 25.26877 18609 ft 360 kts 267°
2026-04-26 09:56 44.52237 25.23372 19123 ft 363 kts 267°
2026-04-26 09:56 44.51996 25.19834 19633 ft 366 kts 267°
2026-04-26 09:56 44.51756 25.16308 20129 ft 370 kts 267°
2026-04-26 09:57 44.51511 25.12703 20654 ft 373 kts 267°
2026-04-26 09:57 44.51265 25.09070 21183 ft 377 kts 267°
2026-04-26 09:57 44.51014 25.05401 21703 ft 380 kts 266°
2026-04-26 09:57 44.50761 25.01706 22213 ft 383 kts 266°
2026-04-26 09:58 44.50506 24.97985 22711 ft 386 kts 266°
2026-04-26 09:58 44.50251 24.94232 23198 ft 389 kts 266°
2026-04-26 09:58 44.49992 24.90449 23650 ft 392 kts 266°
2026-04-26 09:58 44.49727 24.86638 24042 ft 394 kts 266°
2026-04-26 09:59 44.49459 24.82799 24431 ft 397 kts 266°
2026-04-26 09:59 44.49190 24.78993 24810 ft 400 kts 266°
2026-04-26 09:59 44.48911 24.75102 25153 ft 404 kts 266°
2026-04-26 09:59 44.48627 24.71169 25493 ft 408 kts 266°
2026-04-26 10:00 44.48339 24.67201 25848 ft 411 kts 266°
2026-04-26 10:00 44.48053 24.63206 26219 ft 414 kts 266°
2026-04-26 10:00 44.47765 24.59184 26582 ft 417 kts 266°
2026-04-26 10:00 44.47475 24.55136 26927 ft 420 kts 266°
2026-04-26 10:01 44.47182 24.51060 27277 ft 422 kts 266°
2026-04-26 10:01 44.46889 24.47017 27638 ft 425 kts 266°
2026-04-26 10:01 44.46587 24.42890 27991 ft 427 kts 266°
2026-04-26 10:01 44.46280 24.38740 28349 ft 430 kts 266°
2026-04-26 10:02 44.45970 24.34566 28667 ft 433 kts 266°
2026-04-26 10:02 44.45656 24.30362 28938 ft 437 kts 267°
2026-04-26 10:02 44.45338 24.26115 29223 ft 440 kts 267°
2026-04-26 10:02 44.45014 24.21846 29551 ft 443 kts 267°
2026-04-26 10:03 44.44688 24.17549 29863 ft 445 kts 266°
2026-04-26 10:03 44.44359 24.13225 30151 ft 448 kts 266°
2026-04-26 10:03 44.44029 24.08934 30432 ft 451 kts 267°
2026-04-26 10:03 44.43693 24.04582 30819 ft 449 kts 266°
2026-04-26 10:04 44.43354 24.00239 31225 ft 448 kts 266°
2026-04-26 10:04 44.43017 23.95907 31622 ft 448 kts 266°
2026-04-26 10:04 44.42681 23.91586 32016 ft 446 kts 267°
2026-04-26 10:04 44.42343 23.87275 32394 ft 446 kts 266°
2026-04-26 10:05 44.42000 23.82960 32764 ft 446 kts 267°
2026-04-26 10:05 44.41660 23.78661 33130 ft 445 kts 266°
2026-04-26 10:05 44.41317 23.74362 33535 ft 443 kts 267°
2026-04-26 10:05 44.40981 23.70146 33937 ft 442 kts 266°
2026-04-26 10:06 44.40642 23.65883 34265 ft 441 kts 266°
2026-04-26 10:06 44.40301 23.61638 34593 ft 439 kts 267°
2026-04-26 10:06 44.39955 23.57398 34938 ft 437 kts 267°
2026-04-26 10:06 44.39607 23.53188 35290 ft 435 kts 266°
2026-04-26 10:07 44.39260 23.48992 35613 ft 434 kts 266°
2026-04-26 10:07 44.38916 23.44808 35885 ft 433 kts 266°
2026-04-26 10:07 44.38230 23.36530 35981 ft 430 kts 266°
2026-04-26 10:08 44.37538 23.28223 35989 ft 430 kts 266°
2026-04-26 10:08 44.36840 23.19932 35988 ft 429 kts 266°
2026-04-26 10:09 44.36133 23.11637 35994 ft 430 kts 266°
2026-04-26 10:09 44.35420 23.03349 35994 ft 429 kts 266°
2026-04-26 10:10 44.34706 22.95105 36009 ft 432 kts 266°
2026-04-26 10:10 44.33984 22.86779 36008 ft 432 kts 266°
2026-04-26 10:11 44.33245 22.78457 36004 ft 432 kts 265°
2026-04-26 10:11 44.32506 22.70129 36010 ft 432 kts 266°
2026-04-26 10:12 44.31772 22.61867 36013 ft 432 kts 265°
2026-04-26 10:12 44.31220 22.53532 36014 ft 429 kts 274°
2026-04-26 10:13 44.31346 22.45216 36013 ft 429 kts 274°
2026-04-26 10:13 44.31480 22.36895 36024 ft 428 kts 274°
2026-04-26 10:14 44.31600 22.28642 36026 ft 428 kts 274°
2026-04-26 10:14 44.31716 22.20334 36027 ft 428 kts 273°
2026-04-26 10:15 44.31822 22.12048 36037 ft 425 kts 273°
2026-04-26 10:15 44.31921 22.03793 36038 ft 425 kts 273°
2026-04-26 10:16 44.32015 21.95597 36045 ft 425 kts 273°
2026-04-26 10:16 44.32099 21.87344 36045 ft 425 kts 273°
2026-04-26 10:17 44.32176 21.79083 36053 ft 425 kts 273°
2026-04-26 10:17 44.32252 21.70828 36054 ft 425 kts 273°
2026-04-26 10:18 44.32326 21.62636 36060 ft 425 kts 273°
2026-04-26 10:18 44.32393 21.54388 36063 ft 425 kts 273°
2026-04-26 10:19 44.32441 21.46143 36062 ft 425 kts 273°
2026-04-26 10:19 44.32488 21.37892 36041 ft 424 kts 272°
2026-04-26 10:20 44.32536 21.29730 36061 ft 423 kts 272°
2026-04-26 10:20 44.32577 21.21518 36067 ft 423 kts 272°
2026-04-26 10:21 44.32615 21.13312 36067 ft 423 kts 272°
2026-04-26 10:21 44.32646 21.05111 36074 ft 423 kts 272°
2026-04-26 10:22 44.32662 20.96955 36062 ft 423 kts 272°
2026-04-26 10:22 44.32682 20.88745 36078 ft 423 kts 272°
2026-04-26 10:23 44.32699 20.80540 36081 ft 423 kts 272°
2026-04-26 10:23 44.32702 20.72325 36086 ft 423 kts 272°
2026-04-26 10:24 44.32696 20.64113 36087 ft 423 kts 272°
2026-04-26 10:24 44.32689 20.55962 36094 ft 423 kts 272°
2026-04-26 10:25 44.32670 20.47726 36092 ft 424 kts 272°
2026-04-26 10:25 44.32652 20.39494 36101 ft 424 kts 272°
2026-04-26 10:26 44.32630 20.31255 36096 ft 424 kts 271°
2026-04-26 10:26 44.32600 20.23035 36106 ft 423 kts 271°
2026-04-26 10:27 44.32564 20.14877 36108 ft 423 kts 271°
2026-04-26 10:27 44.32521 20.06655 36114 ft 423 kts 271°
2026-04-26 10:28 44.32466 19.98433 36114 ft 424 kts 271°
2026-04-26 10:28 44.32369 19.90207 36123 ft 424 kts 267°
2026-04-26 10:29 44.30977 19.82237 36122 ft 429 kts 252°
2026-04-26 10:29 44.28851 19.74443 36132 ft 430 kts 252°
2026-04-26 10:30 44.26738 19.66630 36123 ft 430 kts 252°
2026-04-26 10:30 44.24621 19.58824 36132 ft 430 kts 252°
2026-04-26 10:31 44.22494 19.51032 36135 ft 430 kts 252°
2026-04-26 10:31 44.20368 19.43305 36135 ft 430 kts 251°
2026-04-26 10:32 44.18228 19.35532 36134 ft 430 kts 252°
2026-04-26 10:32 44.16163 19.27725 36133 ft 429 kts 252°
2026-04-26 10:33 44.14138 19.19888 36135 ft 430 kts 252°
2026-04-26 10:33 44.12091 19.12129 36138 ft 430 kts 251°
2026-04-26 10:34 44.09943 19.04370 36139 ft 430 kts 251°
2026-04-26 10:34 44.07784 18.96621 36142 ft 430 kts 251°
2026-04-26 10:35 44.05639 18.88866 36139 ft 430 kts 251°
2026-04-26 10:35 44.03505 18.81162 36138 ft 430 kts 251°
2026-04-26 10:36 44.01357 18.73412 36131 ft 430 kts 251°
2026-04-26 10:36 43.99200 18.65656 36137 ft 430 kts 251°
2026-04-26 10:37 43.97027 18.57926 36138 ft 430 kts 251°
2026-04-26 10:37 43.94850 18.50196 36138 ft 430 kts 251°
2026-04-26 10:38 43.92895 18.42433 36140 ft 428 kts 257°
2026-04-26 10:38 43.91368 18.34455 36138 ft 428 kts 256°
2026-04-26 10:39 43.89809 18.26484 36125 ft 428 kts 257°
2026-04-26 10:39 43.88250 18.18517 36139 ft 428 kts 256°
2026-04-26 10:40 43.86698 18.10604 36136 ft 428 kts 257°
2026-04-26 10:40 43.85136 18.02638 36134 ft 428 kts 256°
2026-04-26 10:41 43.83557 17.94686 36130 ft 428 kts 256°
2026-04-26 10:41 43.81969 17.86740 36131 ft 429 kts 256°
2026-04-26 10:42 43.80389 17.78827 36124 ft 429 kts 256°
2026-04-26 10:42 43.78801 17.70864 36123 ft 429 kts 256°
2026-04-26 10:43 43.77206 17.62907 36117 ft 429 kts 256°
2026-04-26 10:43 43.75601 17.54958 36111 ft 429 kts 256°
2026-04-26 10:44 43.74006 17.47068 36116 ft 429 kts 256°
2026-04-26 10:44 43.72406 17.39115 36111 ft 429 kts 256°
2026-04-26 10:45 43.70805 17.31161 36104 ft 430 kts 256°
2026-04-26 10:45 43.69190 17.23211 36106 ft 430 kts 256°
2026-04-26 10:46 43.67578 17.15323 36099 ft 429 kts 256°
2026-04-26 10:46 43.65954 17.07393 36099 ft 429 kts 256°
2026-04-26 10:47 43.64322 16.99468 36104 ft 430 kts 256°
2026-04-26 10:47 43.63268 16.91397 36108 ft 427 kts 270°
2026-04-26 10:48 43.63145 16.83254 36101 ft 427 kts 270°
2026-04-26 10:48 43.63006 16.75052 36094 ft 427 kts 269°
2026-04-26 10:49 43.62854 16.66850 36099 ft 428 kts 269°
2026-04-26 10:49 43.62690 16.58639 36101 ft 428 kts 269°
2026-04-26 10:50 43.62552 16.51808 36101 ft 428 kts 269°
2026-04-26 10:50 43.62357 16.42260 36087 ft 428 kts 269°
2026-04-26 10:51 43.62087 16.29936 36103 ft 429 kts 269°
2026-04-26 10:52 43.61904 16.21707 36095 ft 429 kts 269°
2026-04-26 10:52 43.61718 16.13478 36107 ft 429 kts 269°
2026-04-26 10:53 43.61521 16.05306 36092 ft 429 kts 269°
2026-04-26 10:53 43.61316 15.97077 36102 ft 429 kts 269°
2026-04-26 10:54 43.61007 15.84719 36105 ft 430 kts 269°
2026-04-26 10:54 43.60793 15.76533 36108 ft 430 kts 269°
2026-04-26 10:55 43.60565 15.68291 36114 ft 430 kts 269°
2026-04-26 10:55 43.60330 15.60048 36107 ft 430 kts 269°
2026-04-26 10:56 43.60097 15.51791 36103 ft 431 kts 269°
2026-04-26 10:56 43.59859 15.43533 36118 ft 431 kts 269°
2026-04-26 10:57 43.59614 15.35336 36121 ft 431 kts 269°
2026-04-26 10:57 43.59360 15.27074 36108 ft 431 kts 269°
2026-04-26 10:58 43.59102 15.18804 36126 ft 431 kts 269°
2026-04-26 10:58 43.58839 15.10545 36125 ft 431 kts 269°
2026-04-26 10:59 43.58567 15.02337 36134 ft 431 kts 269°
2026-04-26 10:59 43.58288 14.94080 36132 ft 431 kts 269°
2026-04-26 11:00 43.58004 14.85810 36139 ft 432 kts 269°
2026-04-26 11:00 43.57719 14.77532 36139 ft 432 kts 269°
2026-04-26 11:01 43.57421 14.69311 36136 ft 432 kts 269°
2026-04-26 11:01 43.57119 14.61027 36139 ft 432 kts 269°
2026-04-26 11:02 43.56815 14.52747 36139 ft 432 kts 269°
2026-04-26 11:02 43.56493 14.44470 36139 ft 432 kts 268°
2026-04-26 11:03 43.56576 14.36258 36136 ft 431 kts 274°
2026-04-26 11:03 43.56788 14.27994 36139 ft 431 kts 273°
2026-04-26 11:04 43.56990 14.19724 36138 ft 431 kts 273°
2026-04-26 11:04 43.57184 14.11461 36144 ft 431 kts 273°
2026-04-26 11:05 43.57391 14.03249 36144 ft 431 kts 273°
2026-04-26 11:05 43.57608 13.94990 36144 ft 431 kts 273°
2026-04-26 11:06 43.57814 13.86712 36144 ft 431 kts 273°
2026-04-26 11:06 43.58009 13.78445 36147 ft 432 kts 273°
2026-04-26 11:07 43.58187 13.70165 36141 ft 432 kts 272°
2026-04-26 11:07 43.58350 13.61944 36144 ft 432 kts 272°
2026-04-26 11:08 43.58515 13.53664 36147 ft 432 kts 272°
2026-04-26 11:08 43.58844 13.45405 36148 ft 430 kts 280°
2026-04-26 11:09 43.59855 13.37269 36140 ft 430 kts 280°
2026-04-26 11:09 43.60840 13.29181 36138 ft 430 kts 280°
2026-04-26 11:10 43.61817 13.21036 36139 ft 430 kts 280°
2026-04-26 11:10 43.62795 13.12892 36137 ft 430 kts 280°
2026-04-26 11:11 43.63765 13.04806 36138 ft 430 kts 280°
2026-04-26 11:11 43.64726 12.96660 36138 ft 430 kts 280°
2026-04-26 11:12 43.65680 12.88520 36135 ft 430 kts 280°
2026-04-26 11:12 43.66641 12.80379 36135 ft 430 kts 280°
2026-04-26 11:13 43.67586 12.72290 36135 ft 429 kts 279°
2026-04-26 11:13 43.68521 12.64147 36133 ft 429 kts 279°
2026-04-26 11:14 43.69455 12.55996 36135 ft 429 kts 279°
2026-04-26 11:14 43.70383 12.47851 36135 ft 429 kts 279°
2026-04-26 11:15 43.71299 12.39754 36136 ft 429 kts 279°
2026-04-26 11:15 43.72218 12.31613 36003 ft 428 kts 279°
2026-04-26 11:16 43.72673 12.27547 35737 ft 428 kts 279°
2026-04-26 11:16 43.73128 12.23484 35494 ft 428 kts 279°
2026-04-26 11:16 43.73580 12.19418 35224 ft 428 kts 279°
2026-04-26 11:16 43.74028 12.15354 34736 ft 427 kts 279°
2026-04-26 11:17 43.74470 12.11306 34208 ft 426 kts 279°
2026-04-26 11:17 43.74906 12.07318 33668 ft 424 kts 279°
2026-04-26 11:17 43.75346 12.03304 33168 ft 420 kts 279°
2026-04-26 11:17 43.75782 11.99327 32679 ft 417 kts 279°
2026-04-26 11:18 43.76214 11.95380 32185 ft 414 kts 279°
2026-04-26 11:18 43.76639 11.91457 31698 ft 411 kts 278°
2026-04-26 11:18 43.76728 11.87532 31210 ft 408 kts 265°
2026-04-26 11:18 43.76206 11.83688 30712 ft 407 kts 254°
2026-04-26 11:19 43.75111 11.80090 30244 ft 407 kts 242°
2026-04-26 11:19 43.73488 11.76888 29712 ft 407 kts 230°
2026-04-26 11:19 43.71538 11.74146 29252 ft 404 kts 227°
2026-04-26 11:19 43.69553 11.71430 28793 ft 400 kts 227°
2026-04-26 11:20 43.67586 11.68733 28337 ft 397 kts 227°
2026-04-26 11:20 43.66290 11.66958 28029 ft 395 kts 227°
2026-04-26 11:20 43.63696 11.63405 27447 ft 391 kts 227°
2026-04-26 11:20 43.61771 11.60768 27016 ft 389 kts 227°
2026-04-26 11:21 43.59848 11.58140 26594 ft 388 kts 227°
2026-04-26 11:21 43.57960 11.55564 26177 ft 386 kts 227°
2026-04-26 11:21 43.56053 11.52970 25757 ft 385 kts 227°
2026-04-26 11:21 43.54151 11.50389 25335 ft 383 kts 227°
2026-04-26 11:22 43.52252 11.47820 24910 ft 382 kts 227°
2026-04-26 11:22 43.50363 11.45265 24491 ft 381 kts 227°
2026-04-26 11:22 43.48604 11.42570 24058 ft 376 kts 237°
2026-04-26 11:22 43.47278 11.39496 23606 ft 371 kts 248°
2026-04-26 11:23 43.46375 11.36194 23164 ft 367 kts 254°
2026-04-26 11:23 43.45547 11.32890 22723 ft 364 kts 253°
2026-04-26 11:23 43.44731 11.29660 22302 ft 361 kts 253°
2026-04-26 11:23 43.43908 11.26412 21867 ft 358 kts 253°
2026-04-26 11:24 43.43092 11.23190 21439 ft 356 kts 253°
2026-04-26 11:24 43.42281 11.19983 21002 ft 354 kts 253°
2026-04-26 11:24 43.41472 11.16794 20575 ft 352 kts 253°
2026-04-26 11:24 43.40663 11.13626 20139 ft 351 kts 253°
2026-04-26 11:25 43.39856 11.10466 19705 ft 349 kts 253°
2026-04-26 11:25 43.39056 11.07325 19267 ft 348 kts 253°
2026-04-26 11:25 43.38258 11.04189 18844 ft 347 kts 253°
2026-04-26 11:25 43.37473 11.01108 18416 ft 346 kts 253°
2026-04-26 11:26 43.36676 10.97991 17948 ft 345 kts 253°
2026-04-26 11:26 43.35882 10.94897 17518 ft 342 kts 252°
2026-04-26 11:26 43.35090 10.91826 17090 ft 340 kts 252°
2026-04-26 11:26 43.34302 10.88770 16671 ft 338 kts 252°
2026-04-26 11:27 43.33519 10.85733 16243 ft 337 kts 252°
2026-04-26 11:27 43.32738 10.82711 15821 ft 335 kts 252°
2026-04-26 11:27 43.31968 10.79738 15405 ft 334 kts 251°
2026-04-26 11:27 43.31192 10.76745 14989 ft 332 kts 252°
2026-04-26 11:28 43.30419 10.73761 14574 ft 331 kts 252°
2026-04-26 11:28 43.29702 10.70771 14153 ft 329 kts 259°
2026-04-26 11:28 43.29666 10.67673 13720 ft 325 kts 283°
2026-04-26 11:28 43.30506 10.64849 13290 ft 319 kts 305°
2026-04-26 11:29 43.32051 10.62708 12850 ft 316 kts 327°
2026-04-26 11:29 43.33991 10.61333 12409 ft 314 kts 336°
2026-04-26 11:29 43.35966 10.60048 11976 ft 314 kts 335°
2026-04-26 11:29 43.37831 10.58583 11508 ft 315 kts 319°
2026-04-26 11:30 43.39065 10.56120 11044 ft 317 kts 288°
2026-04-26 11:30 43.39331 10.54120 10743 ft 316 kts 270°
2026-04-26 11:30 43.38771 10.50234 10235 ft 310 kts 253°
2026-04-26 11:30 43.38249 10.47427 9882 ft 299 kts 258°
2026-04-26 11:31 43.37900 10.44663 9624 ft 290 kts 262°
2026-04-26 11:31 43.37704 10.41890 9343 ft 292 kts 266°
2026-04-26 11:31 43.37651 10.39102 8964 ft 291 kts 270°
2026-04-26 11:31 43.37731 10.36331 8590 ft 290 kts 274°
2026-04-26 11:32 43.37933 10.33632 8233 ft 288 kts 277°
2026-04-26 11:32 43.38264 10.30949 7802 ft 281 kts 281°
2026-04-26 11:32 43.38713 10.28359 7450 ft 276 kts 285°
2026-04-26 11:32 43.39265 10.25878 7100 ft 268 kts 288°
2026-04-26 11:33 43.39908 10.23516 6744 ft 260 kts 291°
2026-04-26 11:33 43.40819 10.21421 6387 ft 254 kts 313°
2026-04-26 11:33 43.42264 10.20071 5945 ft 253 kts 339°
2026-04-26 11:33 43.43957 10.19485 5556 ft 248 kts 346°
2026-04-26 11:34 43.45624 10.18969 5207 ft 242 kts 346°
2026-04-26 11:34 43.47298 10.18835 4867 ft 243 kts
2026-04-26 11:34 43.48890 10.19503 4528 ft 244 kts 27°
2026-04-26 11:34 43.50281 10.20820 4192 ft 243 kts 36°
2026-04-26 11:35 43.51631 10.22211 3858 ft 242 kts 35°
2026-04-26 11:35 43.52978 10.23596 3532 ft 242 kts 35°
2026-04-26 11:35 43.54318 10.24972 3215 ft 238 kts 35°
2026-04-26 11:35 43.55192 10.25868 2991 ft 235 kts 35°
2026-04-26 11:36 43.56889 10.27609 2579 ft 223 kts 35°
2026-04-26 11:36 43.58086 10.28838 2309 ft 205 kts 35°
2026-04-26 11:36 43.59173 10.29954 2059 ft 190 kts 34°
2026-04-26 11:36 43.60178 10.30987 1786 ft 168 kts 35°
2026-04-26 11:37 43.61089 10.31923 1557 ft 158 kts 34°
2026-04-26 11:37 43.61955 10.32810 1339 ft 154 kts 33°
2026-04-26 11:37 43.62811 10.33685 1170 ft 152 kts 34°
2026-04-26 11:37 43.63649 10.34567 915 ft 150 kts 35°
2026-04-26 11:38 43.64491 10.35427 759 ft 150 kts 34°
2026-04-26 11:38 43.65333 10.36276 533 ft 149 kts 34°
2026-04-26 11:38 43.66166 10.37136 356 ft 149 kts 36°
2026-04-26 11:38 43.66991 10.38007 164 ft 150 kts 33°
2026-04-26 11:39 43.67822 10.38840 20 ft 138 kts 36°
2026-04-26 11:39 43.68466 10.39519 19 ft 92 kts 37°
2026-04-26 11:39 43.68853 10.39919 20 ft 55 kts 36°
2026-04-26 11:39 43.69109 10.40183 20 ft 40 kts 37°
2026-04-26 11:40 43.69236 10.40306 20 ft 11 kts 16°
2026-04-26 11:40 43.69303 10.40255 18 ft 13 kts 312°
2026-04-26 11:40 43.69356 10.40157 22 ft 11 kts 306°
2026-04-26 11:40 43.69414 10.40099 24 ft 12 kts 348°
2026-04-26 11:41 43.69520 10.40080 16 ft 18 kts 352°
2026-04-26 11:42 43.69747 10.40031 15 ft 0 kts